Date,TemperatureHighF,TemperatureAvgF,TemperatureLowF,DewpointHighF,DewpointAvgF,DewpointLowF,HumidityHigh,HumidityAvg,HumidityLow,PressureMaxIn,PressureMinIn,WindSpeedMaxMPH,WindSpeedAvgMPH,GustSpeedMaxMPH,PrecipitationSumIn
2013-5-1,56,52,49,54,51,49,100,98,88,27.00,26.90,26,2,86,0.03
2013-5-2,51,49,46,51,49,46,100,100,100,27.02,26.96,12,3,12,0.27
2013-5-3,54,49,44,51,48,44,100,96,82,26.93,26.84,27,6,63,0.06
2013-5-4,49,43,38,48,42,38,100,97,87,26.84,26.74,0,0,0,0.09
2013-5-5,48,42,39,48,42,39,100,100,100,26.74,26.61,15,2,23,2.59
2013-5-6,55,50,45,55,49,45,100,99,72,26.64,26.57,20,5,27,2.12
2013-5-7,54,47,44,54,47,44,100,100,98,26.67,26.60,9,1,35,0.72
2013-5-8,59,52,45,57,51,45,100,98,87,26.77,26.64,79,3,79,0.04
2013-5-9,69,58,50,58,54,50,100,86,59,26.86,26.75,33,3,125,0.00
2013-5-10,69,60,49,61,57,49,100,90,67,26.85,26.74,31,1,31,0.07
2013-5-11,64,59,53,62,57,51,100,94,84,26.72,26.61,7,3,16,0.05
2013-5-12,54,49,42,51,41,32,100,76,59,26.76,26.61,14,5,16,0.00
2013-5-13,53,45,37,38,33,30,77,63,48,26.87,26.75,43,4,133,0.00
2013-5-14,66,52,32,50,41,30,93,69,47,26.92,26.80,146,6,181,0.00
2013-5-15,77,67,58,62,57,51,84,71,54,26.85,26.77,0,0,0,0.00
2013-5-16,70,64,56,59,54,48,80,70,59,26.83,26.74,0,0,0,0.00
2013-5-17,70,62,54,65,58,50,100,88,75,26.88,26.80,6,0,11,0.45
2013-5-18,61,58,55,61,58,55,100,100,100,26.91,26.84,5,2,8,0.57
2013-5-19,64,61,58,64,61,58,100,100,100,26.88,26.81,9,2,11,0.08
2013-5-20,74,63,57,67,62,57,100,96,74,26.89,26.82,8,1,14,0.18
2013-5-21,77,66,56,69,64,56,100,91,64,26.85,26.76,0,0,0,0.01
2013-5-22,72,63,56,69,62,56,100,97,83,26.79,26.72,14,1,81,0.90
2013-5-23,72,62,54,64,59,54,100,91,64,26.72,26.65,49,5,114,0.05
2013-5-24,54,52,48,54,52,47,100,99,95,26.75,26.64,0,0,0,0.03
2013-5-25,65,56,42,47,41,37,84,59,38,26.98,26.92,0,0,0,0.00
2013-5-26,66,56,48,53,46,37,97,70,56,26.98,26.90,0,0,0,0.00
2013-5-27,69,58,45,60,54,45,100,88,73,26.99,26.92,0,0,0,0.00
2013-5-28,72,64,55,67,61,55,100,90,71,26.98,26.90,0,0,0,0.00
2013-5-29,74,66,54,66,62,54,100,88,62,27.00,26.92,0,0,0,0.00
2013-5-30,74,64,54,65,61,54,100,88,71,27.03,26.96,0,0,0,0.00
2013-5-31,73,65,56,65,61,56,100,88,72,26.99,26.91,0,0,0,0.00